Regional Weather Roundup
Issued by NWS

Home | Current Version | Previous Version | Graphics & Text | Print | Product List | Glossary On
Versions: 1 2 3 4 5 6 7 8 9 10 11 12 13 14 15 16 17 18 19 20 21 22 23 24 25 26 27 28 29 30 31 32 33 34 35 36 37 38 39 40 41 42 43 44 45 46 47 48 49 50
000
ASUS45 KCYS 280410
RWRWY

WYOMING REGIONAL WEATHER ROUNDUP
NATIONAL WEATHER SERVICE CHEYENNE WY
1000 PM MDT MON JUL 27 2015

NOTE:  "FAIR" INDICATES FEW OR NO CLOUDS BELOW 12,000 FEET
WITH NO SIGNIFICANT WEATHER AND/OR OBSTRUCTIONS TO VISIBILITY.

WYZ001-280500-
YELLOWSTONE NATIONAL PARK

CITY           SKY/WX    TMP DP  RH WIND       PRES   REMARKS
LK YELLOWSTONE   N/A     36  33  89 MISG      30.23R
W YELLOWSTONE  NOT AVBL

$$
WYZ002>013-054>058-071-098>099-280500-
NORTHERN WYOMING

CITY           SKY/WX    TMP DP  RH WIND       PRES   REMARKS
JACKSON        MOCLDY    43  39  87 SW3       30.24R
CODY           FAIR      55  36  47 W12G18    30.02R
GREYBULL       FAIR      58  46  64 NW10      29.97R
WORLAND        FAIR      55  47  74 W5        29.99R
SHERIDAN       FAIR      55  46  71 W18       29.94R
BUFFALO        FAIR      52  45  77 NW10      29.96R
GILLETTE       FAIR      54  47  77 NW15G23   29.94R
HULETT         FAIR      57  50  77 NW9G16    29.92R
NEWCASTLE      FAIR      61  50  67 NW18G24   29.86R

$$
WYZ014>020-022>026-101>103-280500-
CENTRAL WYOMING

CITY           SKY/WX    TMP DP  RH WIND       PRES   REMARKS
BIG PINEY      FAIR      47  29  49 NW6       30.23R
PINEDALE       FAIR      46  34  61 NW6       30.25R
DUBOIS         FAIR      45  32  61 W22       30.17R
LANDER         FAIR      61  24  24 N10       30.04R
RIVERTON       FAIR      60  31  33 NW22G31   30.06R
CASPER         FAIR      63  28  26 W13       30.00R
DOUGLAS        FAIR      71  32  23 W17       29.92R

$$
WYZ021-027>030-104>119-280500-
SOUTHERN WYOMING

CITY           SKY/WX    TMP DP  RH WIND       PRES   REMARKS
EVANSTON       FAIR      53  34  48 W7        30.25R
KEMMERER       FAIR      50  34  53 W7        30.25R
FORT BRIDGER   CLEAR     55  32  41 W7        30.27R
ROCK SPRINGS   FAIR      59  31  34 W23G30    30.16R
DIXON          FAIR      64  31  28 NW10      30.20R
RAWLINS        FAIR      60  29  30 W28G40    30.13R
SARATOGA       FAIR      61  32  33 W14G23    30.18R
LARAMIE        FAIR      61  35  37 NW16      30.10R
CHEYENNE       FAIR      71  38  29 NW20G32   29.99R
TORRINGTON     FAIR      74  47  38 N12       29.80R
PINE BLUFFS    FAIR      77  37  24 NW12      29.91R

$$


USA.gov is the U.S. government's official web portal to all federal, state and local government web resources and services.